Location: Beeston
(52.7000°N, 0.8167°E)
Time: 14:52:25
(UTC+00:00)

CZ-4B R/B - Pass Details

Date: 15 May 2026
Orbit: 442 x 557 km, 97.8° (Epoch: 10 June)

Event Time Altitude Azimuth Distance (km) Brightness Sun altitude
Exits shadow 20:50:44 11° 149° (SSE) 1,552 4.5 -8.1°
Maximum altitude 20:53:59 55° 71° (ENE) 561 2.7 -8.5°
Drops below altitude 10° 20:57:26 10° 353° (N) 1,646 6.2 -8.8°
Sets 20:59:33 0° 349° (N) 2,549 7.4 -9.0°
